IRIDIUM 45

Satellite information

Favourite Embed

Satellite Type and Status

PAYLOADIN ORBIT

Key statistics

Satellite IRIDIUM 45 at a glance.

Uptime

10221

Days in orbit

Revolutions

≈ 15.3

Per day

Orbit

LEO

Low Earth Orbit

Inclination

86.4

Latest

Satellite identification and parameters

Extended collection of information and parameters for IRIDIUM 45.

Object identification

Identified? True

Debris? False

Object name: IRIDIUM 45

International designator: 1997-082A

Object number (NORAD): 25104

Object ID (CCSDS): 25104

Country: UNITED STATES OF AMERICA (US)

Current information (Y/N): Y

RCS size: LARGE

Orbital parameters

Period: 94.036 minutes

Inclination: 86.3539 deg

SMA: 6849.976 km

Apoapsis: 539.885 km

Periapsis: 403.797 km

RAAN: 320.2274 deg

Eccentricy: 0.00993346

Argument of periapsis: 17.6644 deg

Mean anomaly: 342.8017 deg

Mean motion: 15.31331521 rev/day

Mean motion (dot): 0.00037413 rev/day2

B* drag term: 0.0010554662 1/REarth

Two-line elements (TLE)

Creation date: Dec. 14, 2025, 3:07 a.m.

Reference frame: TEME

Reference center: EARTH

Epoch: Dec. 13, 2025, 3:44 p.m. UTC

TLE line 0: 0 IRIDIUM 45

TLE line 1: 1 25104U 97082A 25347.65577423 .00037413 00000-0 10555-2 0 9994

TLE line 2: 2 25104 86.3539 320.2274 0099335 17.6644 342.8017 15.31331521479410

Live tracking on map

Real-time ground track for satellite IRIDIUM 45.

In-orbit conjunctions

There are no conjunctions computed for IRIDIUM 45, at the moment. Check back to stay up to date, as we update our databases every day.

Go to all conjunctions

Associated space launch

Iridium provides global mobile telecommunications services using a constellation of 66 low earth orbit satellites in a 86.4° inclined orbit. Although 77 satellites were originally envisioned for the system and spawned the name based on the 77th element in the periodic table, the system has been scaled back. Motorola's Satellite Communications Group designed and manufactured the Iridium satellites with Lockheed Martin providing the LM-700A spacecraft buses.

IRIDIUM 45 was lifted into orbit during the mission ‘Delta II | Iridium 45 to 49’, on board a Delta II space rocket.

The launch took place on Dec. 20, 1997, 1:16 p.m. from Space Launch Complex 2W.

For more information about the launch, click the button.

Launch to space Delta II | Iridium 45 to 49
Delta II | Iridium 45 to 49

Agency: N/A

Status: Launch Successful

Launch date: Dec. 20, 1997, 1:16 p.m. UTC

Rocket: Delta II

Launch pad: Space Launch Complex 2W

Location: Vandenberg SFB, CA, USA

...

Latest news about this satellite

There are no fresh news available about this satellite. Check back as we update our databases every day.


Newsletter sign-up

Weekly statistics, charts and insights to help you stay on top of the space industry.